BLOCK DM-SL R/B, 44904

Orbit data source: Space-Track

BLOCK DM-SL R/B, 44904 is space debris in GEO originally from a launch on Tue, 24 Dec 2019 UTC launched from the Tyuratam Missile And Space Complex (TTMTR). Debris objects in space refer to the collection of defunct objects orbiting the Earth. Examples of debris include non-operational satellites, rocket bodies, and fragments generated from explosions, collisions, or faulty payload assembly.

Loading next visibility...
BLOCK DM-SL R/B details
Identifier
44904, 2019-095B
Orbit
GEO
Last TLE update13 hours ago
Origin
Flag of CISVVKO VKS (CIS)
ManufacturerRKKE
MissionSpacecraft
Bus & MotorBLOK DM2, 11D58M
Mass2,440 kg wet, 2,440 kg dry
Launch date (UTC)
2019-12-24 (5 years ago)
Launch vehicleUnknown
Launch site
Tyuratam Missile And Space Complex (TTMTR)
Object type
Payload
Rocket body
Debris
Shape & HBRCyl, 7.1 m
Radar Cross Section26.008 m², Large (>1 m²)

Expand to show TLE details & history

TLE from 13 hours ago
0 BLOCK DM-SL R/B
1 44904U 19095B   24361.34126405 -.00000082  00000-0  00000-0 0  9997
2 44904   3.9941  80.5472 0070851 256.2166 102.7000  1.02971647 18853
Epoch: 2024-12-26T08:11Z
Definitive object data (Epoch: 2024-12-26T08:11:25.213Z)
Latitude-0°
Longitude-137.93008°
Altitude35,112.97 km
Speed3.097 km/s
True Right ascension05h 20m 59s
True Declination0° 00' 00"
Sunlit
Object was in daylight at TLE epoch
Visualization TLE readout
Latitude-1.39268°
Longitude62.36848°
Altitude34,880.9 km
Speed3.114 km/s
Apparent Right ascension18h 27m 28s
Apparent Declination-7° 47' 53"
Sunlit
Object is in daylight
Visualization observer readout
Local Sidereal Time20:38:15
Azimuth219.946° SW
Elevation33.532°
Doppler factor1
Orbital elements
Apogee altitude35,340.896 km
Perigee altitude34,753.888 km
Semi-major axis41,425.529 km
Eccentricity0.0070851
Inclination3.9941°
RAAN80.5472°
Arg. of periapsis256.2166°
True anomaly103.49047°
Mean anomaly102.7°
Eccentric anomaly103.09539°
Mean motion0.25742 °/min
BSTARUnknown
Orbital period1398.5 mins
Loading historical data...
44904 neighbors
Authenticating...
Loading maneuver chart data...
Loading historical data...
Loading historical data...
Loading historical data...
Loading historical data...
Loading historical data...
Loading historical data...
Loading historical data...

BLOCK DM-SL R/B Visibility forecast

Observer location: undefined°, undefined

Span
Click to sort rows by Start time (UTC) header in descending order
Start Az.
Max El. time (UTC)
Max El. Az.
Max El.
End time (UTC)
End Az.
1440 mins2024-12-26 21:15:17.893Z219.934° SW2024-12-27 13:52:17.893Z214.471° SW34.059°2024-12-27 21:15:17.893Z207.458° SW
|